Back to catalog

FENGYUN 1C DEB

LostSSO
NORAD 32219·DEBRIS·🇨🇳 China

Launched May 10, 1999 from Taiyuan Satellite Launch Center

Loading…

Next Passes (next 24 hours)

TLE

StaleSource: Space-Track

Epoch: Oct 18, 2010, 06:18 UTC

1 32219U 99025CVR 10291.26267109  .00000828  00000-0  38835-3 0  9996
2 32219  98.8394 293.4115 0086757 273.6268  90.0703 14.20944452167235

Track FENGYUN 1C DEB in real time with AllMySat

Download on the App Store